Back to catalog

STARLINK-5531

AliveCommunicationsVLEO
NORAD 55383·PAYLOAD·🇺🇸 United States

Launched Jan 26, 2023 from Cape Canaveral Space Force Station

Loading…

Next Passes (next 24 hours)

TLE

FreshSource: CelesTrak SupGP

Epoch: Sep 14, 2026, 21:32 UTC

1 55383C 23013BE  26257.89770833 -.00017675  00000+0 -64015-3 0  2573
2 55383  43.0022 300.1789 0002288 272.2353 311.6990 15.27587675    12

Track STARLINK-5531 in real time with AllMySat

Download on the App Store